Location: Avoca
(45.7167°N, 74.7000°W)
Time: 15:46:13
(UTC+00:00)

BlueWalker 3 - Pass Details

Date: 04 December 2022
Orbit: 499 x 517 km, 53.2° (Epoch: 01 February)

Event Time Altitude Azimuth Distance (km) Brightness Sun altitude
Rises 21:45:09 0° 284° (WNW) 2,632 6.4 -5.4°
Maximum altitude 21:51:00 27° 357° (N) 1,017 3.3 -6.3°
Drops below altitude 10° 21:54:22 10° 56° (NE) 1,731 4.0 -6.8°
Enters shadow 21:54:41 - 58° (ENE) 1,839 4.1 -6.9°
